• In Hungary
  • List of Countries
  • For 7 days
  • Water Temperature
  • Satellite Maps
  • Weather Map
  • News
  • Weather Widgets
  • user-avatar
    Login

    Hourly Weather Korytow

    Today, 19 June, Tuesday

    Time Temperature Precipitation Wind Pressure Humidity
    00:00 +18°C° 0 mm 2 mps 752 mmHg 88%
    01:00 +17°C° 0 mm 2 mps 753 mmHg 89%
    02:00 +17°C° 0 mm 2 mps 753 mmHg 89%
    03:00 +16°C° 0 mm 2 mps 753 mmHg 89%
    04:00 +16°C° 0 mm 2 mps 753 mmHg 89%
    05:00 +18°C° 0 mm 2 mps 753 mmHg 82%
    06:00 +19°C° 0 mm 2 mps 753 mmHg 76%
    07:00 +21°C° 0 mm 3 mps 753 mmHg 69%
    08:00 +22°C° 0 mm 3 mps 753 mmHg 64%
    09:00 +24°C° 0 mm 3 mps 753 mmHg 58%
    10:00 +25°C° 0 mm 4 mps 753 mmHg 52%
    11:00 +26°C° 0 mm 4 mps 753 mmHg 52%
    12:00 +26°C° 0 mm 4 mps 753 mmHg 53%
    13:00 +27°C° 0 mm 5 mps 753 mmHg 53%
    14:00 +26°C° 0.1 mm 5 mps 753 mmHg 55%
    15:00 +26°C° 0.1 mm 5 mps 753 mmHg 58%
    16:00 +26°C° 0.1 mm 5 mps 753 mmHg 60%
    17:00 +25°C° 0 mm 4 mps 753 mmHg 65%
    18:00 +24°C° 0 mm 3 mps 753 mmHg 69%
    19:00 +22°C° 0 mm 3 mps 753 mmHg 74%
    20:00 +21°C° 0 mm 2 mps 754 mmHg 77%
    21:00 +19°C° 0 mm 2 mps 754 mmHg 80%
    22:00 +18°C° 0 mm 2 mps 755 mmHg 84%
    23:00 +18°C° 0 mm 2 mps 755 mmHg 84%

    Tomorrow, 20 June, Wednesday

    Time Temperature Precipitation Wind Pressure Humidity
    00:00 +18°C° 0 mm 1 mps 755 mmHg 85%
    01:00 +18°C° 0 mm 1 mps 755 mmHg 86%
    02:00 +18°C° 0 mm 1 mps 755 mmHg 86%
    03:00 +16°C° 0 mm 1 mps 755 mmHg 86%
    04:00 +16°C° 0 mm 1 mps 755 mmHg 86%
    05:00 +18°C° 0 mm 2 mps 755 mmHg 81%
    06:00 +20°C° 0 mm 2 mps 755 mmHg 75%
    07:00 +21°C° 0 mm 2 mps 756 mmHg 69%
    08:00 +23°C° 0 mm 2 mps 756 mmHg 66%
    09:00 +24°C° 0 mm 2 mps 755 mmHg 62%
    10:00 +25°C° 0 mm 3 mps 755 mmHg 59%
    11:00 +26°C° 0.1 mm 3 mps 755 mmHg 58%
    12:00 +26°C° 0.1 mm 3 mps 755 mmHg 57%
    13:00 +27°C° 0.1 mm 3 mps 754 mmHg 56%
    14:00 +27°C° 0 mm 3 mps 754 mmHg 55%
    15:00 +27°C° 0 mm 3 mps 754 mmHg 55%
    16:00 +27°C° 0 mm 3 mps 753 mmHg 55%
    17:00 +26°C° 0 mm 2 mps 753 mmHg 60%
    18:00 +25°C° 0 mm 2 mps 753 mmHg 65%
    19:00 +24°C° 0 mm 2 mps 753 mmHg 70%
    20:00 +23°C° 0 mm 2 mps 753 mmHg 74%
    21:00 +22°C° 0 mm 1 mps 753 mmHg 77%
    22:00 +21°C° 0 mm 1 mps 753 mmHg 81%
    23:00 +20°C° 0 mm 1 mps 753 mmHg 83%

    Day after tomorrow, 21 June, Thursday

    Time Temperature Precipitation Wind Pressure Humidity
    00:00 +20°C° 0 mm 1 mps 753 mmHg 85%
    01:00 +19°C° 0 mm 1 mps 752 mmHg 87%
    02:00 +19°C° 0 mm 1 mps 752 mmHg 87%
    03:00 +19°C° 0 mm 1 mps 752 mmHg 87%
    04:00 +19°C° 0 mm 1 mps 751 mmHg 88%
    05:00 +20°C° 0 mm 2 mps 751 mmHg 82%
    06:00 +23°C° 0 mm 2 mps 751 mmHg 76%
    07:00 +24°C° 0 mm 2 mps 750 mmHg 69%
    08:00 +26°C° 0.1 mm 3 mps 750 mmHg 65%
    09:00 +27°C° 0.1 mm 3 mps 749 mmHg 60%
    10:00 +28°C° 0.1 mm 3 mps 749 mmHg 55%
    11:00 +29°C° 0 mm 4 mps 748 mmHg 53%
    12:00 +29°C° 0 mm 4 mps 747 mmHg 51%
    13:00 +30°C° 0 mm 4 mps 746 mmHg 49%
    14:00 +30°C° 0 mm 4 mps 745 mmHg 51%
    15:00 +30°C° 0 mm 4 mps 744 mmHg 52%
    16:00 +29°C° 0 mm 4 mps 743 mmHg 54%
    17:00 +28°C° 0.4 mm 4 mps 743 mmHg 60%
    18:00 +27°C° 0.4 mm 4 mps 742 mmHg 66%
    19:00 +26°C° 0.4 mm 4 mps 742 mmHg 71%
    20:00 +23°C° 0.9 mm 5 mps 742 mmHg 77%
    21:00 +21°C° 0.9 mm 6 mps 743 mmHg 83%
    22:00 +18°C° 0.9 mm 7 mps 743 mmHg 89%
    23:00 +16°C° 0.1 mm 7 mps 744 mmHg 88%

    22 June, Friday

    Time Temperature Precipitation Wind Pressure Humidity
    00:00 +14°C° 0.1 mm 7 mps 744 mmHg 87%
    01:00 +11°C° 0.1 mm 7 mps 745 mmHg 85%
    02:00 +10°C° 0 mm 7 mps 746 mmHg 84%
    03:00 +10°C° 0 mm 6 mps 746 mmHg 83%
    04:00 +9°C° 0 mm 6 mps 747 mmHg 82%
    05:00 +10°C° 0 mm 6 mps 747 mmHg 79%
    06:00 +10°C° 0 mm 7 mps 747 mmHg 76%
    07:00 +10°C° 0 mm 7 mps 747 mmHg 74%
    08:00 +11°C° 0 mm 7 mps 748 mmHg 69%
    09:00 +11°C° 0 mm 7 mps 748 mmHg 65%
    10:00 +12°C° 0 mm 7 mps 748 mmHg 61%
    11:00 +14°C° 0 mm 7 mps 748 mmHg 59%
    12:00 +14°C° 0 mm 7 mps 748 mmHg 57%
    13:00 +15°C° 0 mm 7 mps 748 mmHg 55%
    14:00 +15°C° 0.1 mm 7 mps 748 mmHg 55%
    15:00 +15°C° 0.1 mm 8 mps 748 mmHg 55%
    16:00 +16°C° 0.1 mm 8 mps 748 mmHg 55%
    17:00 +15°C° 0 mm 7 mps 748 mmHg 59%
    18:00 +14°C° 0 mm 6 mps 748 mmHg 62%
    19:00 +13°C° 0 mm 5 mps 748 mmHg 66%
    20:00 +12°C° 0 mm 5 mps 749 mmHg 69%
    21:00 +11°C° 0 mm 4 mps 749 mmHg 73%
    22:00 +10°C° 0 mm 4 mps 749 mmHg 76%
    23:00 +10°C° 0 mm 4 mps 749 mmHg 80%

    23 June, Saturday

    Time Temperature Precipitation Wind Pressure Humidity
    00:00 +10°C° 0 mm 4 mps 749 mmHg 83%
    01:00 +8°C° 0 mm 4 mps 749 mmHg 86%
    02:00 +8°C° 0 mm 4 mps 749 mmHg 88%
    03:00 +8°C° 0 mm 4 mps 749 mmHg 89%
    04:00 +8°C° 0 mm 4 mps 749 mmHg 91%
    05:00 +10°C° 0 mm 4 mps 749 mmHg 85%
    06:00 +12°C° 0 mm 5 mps 749 mmHg 80%
    07:00 +13°C° 0 mm 5 mps 749 mmHg 74%
    08:00 +14°C° 0.4 mm 5 mps 749 mmHg 73%
    09:00 +15°C° 0.4 mm 6 mps 749 mmHg 72%
    10:00 +15°C° 0.4 mm 6 mps 749 mmHg 71%
    11:00 +16°C° 0.6 mm 6 mps 749 mmHg 69%
    12:00 +16°C° 0.6 mm 6 mps 749 mmHg 67%
    13:00 +17°C° 0.6 mm 6 mps 749 mmHg 65%
    14:00 +17°C° 0.3 mm 6 mps 749 mmHg 64%
    15:00 +17°C° 0.3 mm 6 mps 749 mmHg 62%
    16:00 +17°C° 0.3 mm 6 mps 749 mmHg 61%
    17:00 +16°C° 0.1 mm 6 mps 750 mmHg 65%
    18:00 +15°C° 0.1 mm 5 mps 750 mmHg 70%
    19:00 +14°C° 0.1 mm 4 mps 750 mmHg 74%
    20:00 +13°C° 0 mm 4 mps 750 mmHg 79%
    21:00 +12°C° 0 mm 3 mps 751 mmHg 83%
    22:00 +11°C° 0 mm 3 mps 751 mmHg 87%
    23:00 +11°C° 0 mm 3 mps 751 mmHg 89%

    24 June, Sunday

    Time Temperature Precipitation Wind Pressure Humidity
    00:00 +10°C° 0 mm 3 mps 751 mmHg 90%
    01:00 +10°C° 0 mm 3 mps 752 mmHg 92%
    02:00 +10°C° 0 mm 3 mps 752 mmHg 92%
    03:00 +9°C° 0 mm 2 mps 752 mmHg 92%
    04:00 +9°C° 0 mm 2 mps 752 mmHg 92%
    05:00 +12°C° 0 mm 2 mps 752 mmHg 85%
    06:00 +13°C° 0 mm 2 mps 752 mmHg 78%
    07:00 +15°C° 0 mm 2 mps 753 mmHg 71%
    08:00 +16°C° 0.1 mm 2 mps 753 mmHg 65%
    09:00 +18°C° 0.1 mm 3 mps 753 mmHg 58%
    10:00 +19°C° 0.1 mm 3 mps 753 mmHg 52%
    11:00 +19°C° 0.1 mm 3 mps 753 mmHg 51%
    12:00 +20°C° 0.1 mm 3 mps 753 mmHg 49%
    13:00 +20°C° 0.1 mm 3 mps 752 mmHg 48%
    14:00 +20°C° 0 mm 3 mps 753 mmHg 48%
    15:00 +21°C° 0 mm 3 mps 753 mmHg 48%
    16:00 +21°C° 0 mm 3 mps 753 mmHg 48%
    17:00 +20°C° 0 mm 3 mps 753 mmHg 53%
    18:00 +19°C° 0 mm 2 mps 753 mmHg 58%
    19:00 +18°C° 0 mm 2 mps 753 mmHg 64%
    20:00 +16°C° 0 mm 2 mps 753 mmHg 68%
    21:00 +15°C° 0 mm 2 mps 754 mmHg 72%
    22:00 +14°C° 0 mm 2 mps 754 mmHg 76%
    23:00 +13°C° 0 mm 2 mps 754 mmHg 78%
    Show more